Fort Knox, KY

10:25 AM EST on February 25, 2017 (GMT -0500)
Godman Army Air Field

Weather History for KFTK - December, 2012

Change the Weather History Date:

Sunday, December 23, 2012

  Actual Average Record
Temperature  
Mean Temperature 42 °F -  
Max Temperature 54 °F 39 °F 68 °F (2015)
Min Temperature 29 °F 23 °F 1 °F (2000)
Degree Days  
Heating Degree Days 24    
Moisture  
Dew Point 30 °F    
Average Humidity 64    
Maximum Humidity 93    
Minimum Humidity 42    
Precipitation  
Precipitation 0.00 in - - ()
Sea Level Pressure  
Sea Level Pressure 29.97 in    
Wind  
Wind Speed 7 mph (South)    
Max Wind Speed 12 mph    
Max Gust Speed -    
Visibility 10 miles    
Events      
Averages and records for this station are not official NWS values.
T = Trace of Precipitation, MM = Missing Value Source: NWS Daily Summary

Daily Weather History Graph

Daily Weather History Graph

Search for Another Location

Airport or City:

Trip Planner

Search our weather history database for the weather conditions in past years. The results will help you decide how hot, cold, wet, or windy it might be!

Date:

Astronomy

Dec. 23, 2012 Rise Set
Actual Time 7:57 AM EST 5:29 PM EST
Civil Twilight 7:27 AM EST 5:58 PM EST
Nautical Twilight 6:54 AM EST 6:31 PM EST
Astronomical Twilight 6:22 AM EST 7:03 PM EST
Moon 2:17 PM EST (12/23) 3:41 AM EST (12/23)
Length of Visible Light 10h 31m
Length of Day
9h 32m
Waxing Gibbous, 81% of the Moon is Illuminated
Dec 23
Waxing Gibbous
Dec 28
Full
Jan 4
Last Quarter
Jan 11
New
Jan 18
First Quarter

Hourly Weather History & Observations

Time (EST) Temp. Windchill Dew Point Humidity Pressure Visibility Wind Dir Wind Speed Gust Speed Precip Events Conditions
12:55 AM 29.8 °F 23.0 °F 17.4 °F 60% 30.08 in 10.0 mi South 6.9 mph - N/A   Clear
1:55 AM 29.5 °F 23.4 °F 17.6 °F 61% 30.06 in 10.0 mi South 5.8 mph - N/A   Clear
2:55 AM 29.1 °F 23.0 °F 18.1 °F 64% 30.06 in 10.0 mi SSW 5.8 mph - N/A   Clear
3:55 AM 31.6 °F 24.4 °F 20.5 °F 63% 30.03 in 10.0 mi SSW 8.1 mph - N/A   Clear
4:55 AM 34.9 °F 26.6 °F 22.1 °F 60% 30.00 in 10.0 mi SSW 11.5 mph - N/A   Scattered Clouds
5:55 AM 36.1 °F 29.3 °F 23.0 °F 59% 30.00 in 10.0 mi SW 9.2 mph - N/A   Scattered Clouds
6:55 AM 37.0 °F 32.4 °F 24.3 °F 60% 30.00 in 10.0 mi SW 5.8 mph - N/A   Mostly Cloudy
7:55 AM 37.0 °F 34.5 °F 24.8 °F 61% 30.00 in 10.0 mi SW 3.5 mph - N/A   Mostly Cloudy
8:55 AM 38.7 °F 35.2 °F 26.1 °F 61% 30.01 in 10.0 mi SSW 4.6 mph - N/A   Overcast
9:55 AM 40.6 °F 38.6 °F 26.8 °F 58% 30.01 in 10.0 mi South 3.5 mph - N/A   Mostly Cloudy
10:55 AM 46.4 °F 41.9 °F 28.6 °F 50% 30.01 in 10.0 mi SW 9.2 mph - N/A   Scattered Clouds
11:55 AM 46.9 °F - 29.5 °F 51% 29.99 in 10.0 mi SW 10.4 mph - N/A   Clear
12:55 PM 52.2 °F - 31.1 °F 45% 29.96 in 10.0 mi SSW 9.2 mph - N/A   Partly Cloudy
1:55 PM 54.3 °F - 31.3 °F 42% 29.94 in 10.0 mi SSW 9.2 mph - N/A   Clear
2:55 PM 52.9 °F - 31.6 °F 44% 29.94 in 10.0 mi SSW 8.1 mph - N/A   Clear
3:55 PM 53.6 °F - 32.5 °F 45% 29.94 in 10.0 mi South 6.9 mph - N/A   Clear
4:55 PM 50.0 °F - 34.5 °F 55% 29.94 in 10.0 mi South 5.8 mph - N/A   Clear
5:55 PM 46.2 °F 44.1 °F 33.8 °F 62% 29.94 in 10.0 mi SSE 4.6 mph - N/A   Clear
6:55 PM 43.9 °F 41.3 °F 34.0 °F 68% 29.95 in 10.0 mi SSE 4.6 mph - N/A   Clear
7:55 PM 42.6 °F 39.9 °F 34.3 °F 73% 29.96 in 10.0 mi SE 4.6 mph - N/A   Clear
8:55 PM 41.4 °F 38.4 °F 35.2 °F 79% 29.95 in 10.0 mi East 4.6 mph - N/A   Mostly Cloudy
9:55 PM 42.1 °F 40.2 °F 36.7 °F 81% 29.94 in 10.0 mi ESE 3.5 mph - N/A   Overcast
10:51 PM 44.6 °F 40.7 °F 39.2 °F 81% 29.92 in 10.0 mi SSE 6.9 mph - N/A   Overcast
10:55 PM 44.6 °F 40.7 °F 40.3 °F 85% 29.92 in 10.0 mi South 6.9 mph - N/A   Overcast
11:08 PM 44.6 °F 41.4 °F 41.0 °F 87% 29.92 in 10.0 mi SSE 5.8 mph - N/A   Overcast
11:45 PM 44.6 °F 41.4 °F 42.8 °F 93% 29.91 in 10.0 mi SSE 5.8 mph - N/A   Overcast
11:55 PM 44.4 °F 40.0 °F 42.3 °F 92% 29.91 in 10.0 mi SSE 8.1 mph - N/A   Overcast